Location: Cluj-Napoca
(46.7712°N, 23.6236°E)
Time: 06:37:47
(UTC+02:00)

ISS - Pass Details

Date: 22 January 2021
Orbit: 418 x 421 km, 51.6° (Epoch: 23 January)

Event Time Altitude Azimuth Distance (km) Brightness Sun altitude
Rises 19:43:05 0° 262° (W) 2,367 1.4 -25.2°
Reaches altitude 10° 19:45:14 10° 269° (W) 1,505 0.1 -25.6°
Enters shadow 19:47:08 28° 287° (WNW) 820 -1.7 -25.9°
